This is the latest recevied weather packets stored in our database for station/object KB0Y. If no packets are shown the sender has not sent any weather packets the latest 10 day(s).
| Time | Temp. | Humidity | Pressure | Rain* | Wind** | Luminosity | Snow |
|---|---|---|---|---|---|---|---|
| 1777691096 | 16.11° C | 99% | 1016.2 hPa | 0 mm | - | 0 W/m² | - |
| 1777690794 | 16.11° C | 99% | 1016.6 hPa | 0 mm | - | 0 W/m² | - |
| 1777690491 | 16.11° C | 99% | 1016.6 hPa | 1.78 mm | - | 0 W/m² | - |
| 1777690189 | 16.11° C | 99% | 1016.6 hPa | 1.78 mm | - | 0 W/m² | - |
| 1777689887 | 16.11° C | 99% | 1016.2 hPa | 1.78 mm | - | 0 W/m² | - |
| 1777689585 | 16.11° C | 99% | 1015.9 hPa | 0 mm | - | 0 W/m² | - |
| 1777689282 | 16.67° C | 99% | 1016.6 hPa | 0 mm | - | 0 W/m² | - |
| 1777688979 | 16.67° C | 99% | 1016.6 hPa | 0 mm | - | 0 W/m² | - |
| 1777688675 | 16.67° C | 99% | 1016.6 hPa | 0 mm | - | 0 W/m² | - |
| 1777688373 | 16.67° C | 99% | 1015.9 hPa | 0 mm | - | 0 W/m² | - |
| 1777688070 | 16.67° C | 99% | 1014.9 hPa | 0 mm | - | 0 W/m² | - |
| 1777687767 | 16.67° C | 99% | 1015.2 hPa | 0 mm | - | 0 W/m² | - |
| 1777674131 | 20.56° C | 78% | 1014.9 hPa | 0 mm | - | 29 W/m² | - |
| 1777673828 | 21.11° C | 78% | 1014.9 hPa | 0 mm | - | 32 W/m² | - |
| 1777673525 | 21.11° C | 77% | 1014.5 hPa | 0 mm | - | 37 W/m² | - |
| 1777673223 | 21.11° C | 76% | 1015.2 hPa | 0 mm | - | 45 W/m² | - |
| 1777672920 | 21.11° C | 75% | 1015.6 hPa | 0 mm | - | 42 W/m² | - |
| 1777672617 | 21.11° C | 75% | 1014.9 hPa | 0 mm | - | 38 W/m² | - |
| 1777672312 | 21.11° C | 74% | 1015.2 hPa | 0 mm | - | 51 W/m² | - |
| 1777671400 | 21.11° C | 74% | 1015.2 hPa | 0 mm | - | 44 W/m² | - |
| 1777671096 | 21.11° C | 76% | 1015.2 hPa | 0 mm | - | 52 W/m² | - |
| 1777670793 | 21.11° C | 75% | 1015.2 hPa | 0 mm | - | 35 W/m² | - |
| 1777670489 | 21.67° C | 75% | 1015.2 hPa | 0 mm | - | 30 W/m² | - |
| 1777670186 | 21.67° C | 74% | 1015.6 hPa | 0 mm | - | 34 W/m² | - |
| 1777669884 | 22.22° C | 74% | 1015.6 hPa | 0 mm | - | 29 W/m² | - |
* Rain latest hour (hover to see other rain measurements)
** Current wind speed in m/s (hover to see current wind gust speed)